Location: San Martino di Castrozza
(46.2667°N, 11.8000°E)
Time: 07:06:51
(UTC+00:00)

Cosmos 1833 Rocket - Pass Details

Date: 23 April 2021
Orbit: 831 x 841 km, 71.0° (Epoch: 07 May)

Event Time Altitude Azimuth Distance (km) Brightness Sun altitude
Rises 00:30:38 0° 331° (NNW) 3,406 6.4 -28.5°
Reaches altitude 10° 00:33:05 10° 329° (NNW) 2,468 5.5 -28.4°
Enters shadow 00:37:47 58° 298° (WNW) 981 2.9 -28.0°
